Location: Azul
(36.7830°S, 59.8500°W)
Time: 08:23:15
(UTC-03:00)

DOVE 4 - Pass Details

Date: 23 October 2021
Orbit: 588 x 799 km, 97.8° (Epoch: 07 December)

Event Time Altitude Azimuth Distance (km) Brightness Sun altitude
Exits shadow 23:35:34 15° 154° (SSE) 2,078 ? -38.9°
Drops below altitude 10° 23:36:43 10° 163° (SSE) 2,398 ? -38.9°
Sets 23:39:32 0° 177° (S) 3,343 ? -39.1°
